This demonstration page uses our WeatherBlox Daily Observations layout. Learn more.

Left ArrowRight Arrow

41.86663, -103.66717

Hourly Observations for September 4, 2020

Temp ( °F °C ) Dew Point ( °F °C ) Humidity (%) Winds ( mph kmh ) Pressure ( in mb ) Visibility ( mi km ) Precip ( " mm )
12:53 am 00:53 Clear 59 15 42 5.6 54 54 E 9 15 30.04 1017 10 16.0934 0 0
1:53 am 01:53 Clear 58 14.4 42 5.6 56 56 NE 3 6 30.04 1017 10 16.0934 0 0
2:53 am 02:53 Clear 54 12.2 42 5.6 64 64 Calm 30.05 1018 10 16.0934 0 0
3:53 am 03:53 Clear 53 11.7 42 5.6 66 66 Calm 30.05 1018 10 16.0934 0 0
4:53 am 04:53 Clear 51 10.6 44 6.7 77 77 Calm 30.06 1018 10 16.0934 0 0
5:53 am 05:53 Clear 45 7.2 41 5 86 86 NW 7 11 30.09 1019 10 16.0934 0 0
6:53 am 06:53 Sunny 48 8.9 43 6.1 83 83 NW 5 7 30.11 1020 10 16.0934 0 0
7:53 am 07:53 Sunny 56 13.3 44 6.7 65 65 WNW 6 9 30.15 1021 10 16.0934 0 0
8:53 am 08:53 Sunny 63 17.2 43 6.1 48 48 WSW 6 9 30.15 1021 10 16.0934 0 0
9:53 am 09:53 Sunny 72 22.2 44 6.7 37 37 W 5 7 30.16 1021 10 16.0934 0 0
10:53 am 10:53 Sunny 78 25.6 46 7.8 32 32 W 7 11 30.14 1021 10 16.0934 0 0
11:53 am 11:53 Sunny 85 29.4 45 7.2 25 25 VRB 6 9 30.12 1020 10 16.0934 0 0
12:53 pm 12:53 Sunny 88 31.1 39 3.9 18 18 ENE 6 9 30.1 1019 10 16.0934 0 0
1:53 pm 13:53 Sunny 90 32.2 40 4.4 17 17 NE 8 13 30.1 1019 10 16.0934 0 0
2:53 pm 14:53 Sunny 90 32.2 37 2.8 15 15 SE 7 11 30.09 1019 10 16.0934 0 0
3:53 pm 15:53 Sunny 90 32.2 38 3.3 16 16 S 10 17 30.08 1019 10 16.0934 0 0
4:53 pm 16:53 Sunny 89 31.7 39 3.9 17 17 SE 9 15 30.08 1019 10 16.0934 0 0
5:53 pm 17:53 Sunny 89 31.7 38 3.3 16 16 ESE 7 11 30.1 1019 10 16.0934 0 0
6:53 pm 18:53 Sunny 81 27.2 48 8.9 32 32 E 5 7 30.11 1020 10 16.0934 0 0
7:53 pm 19:53 Clear 71 21.7 49 9.4 46 46 ENE 9 15 30.13 1020 10 16.0934 0 0
8:53 pm 20:53 Clear 69 20.6 45 7.2 42 42 SSE 5 7 30.15 1021 10 16.0934 0 0
9:53 pm 21:53 Clear 64 17.8 47 8.3 54 54 ENE 9 15 30.16 1021 10 16.0934 0 0
10:53 pm 22:53 Clear 63 17.2 45 7.2 52 52 E 7 11 30.15 1021 10 16.0934 0 0
11:53 pm 23:53 Clear 62 16.7 44 6.7 52 52 E 3 6 30.14 1021 10 16.0934 0 0

Powered by AerisWeather